Weather reports worldwide

Advertisment
Elphin, United Kingdom (99153): temperature & dewpoint: 15.02.2017 14:00:00 - 21.02.2017 14:00:00 (GMT)Elphin, United Kingdom (99153): precipitation: 15.02.2017 14:00:00 - 21.02.2017 14:00:00 (GMT)
Date & Time tt [°C] td [°C] rr [mm]
21.02.2017 14:00:00 - - -
21.02.2017 13:00:00 - - -
21.02.2017 12:00:00 7,7 6,2 0,8
21.02.2017 11:00:00 6,8 4,3 0,2
21.02.2017 10:00:00 7,3 2,7 0,0
21.02.2017 09:00:00 6,7 3,2 0,0
21.02.2017 08:00:00 6,3 3,2 0,0
21.02.2017 07:00:00 5,9 3,1 0,0
21.02.2017 06:00:00 5,7 3,8 0,0
21.02.2017 05:00:00 5,9 3,4 0,2
21.02.2017 04:00:00 4,8 2,7 0,0
21.02.2017 03:00:00 5,0 3,0 0,2
21.02.2017 02:00:00 5,3 3,4 0,4
21.02.2017 01:00:00 5,8 2,9 0,0
21.02.2017 00:00:00 5,4 2,8 0,0
20.02.2017 23:00:00 4,7 4,0 1,4
20.02.2017 22:00:00 5,4 3,4 0,2
20.02.2017 21:00:00 5,5 4,2 1,2
20.02.2017 20:00:00 5,8 4,0 0,0
20.02.2017 19:00:00 5,2 4,2 1,0
20.02.2017 18:00:00 5,3 3,9 1,4
20.02.2017 17:00:00 6,3 4,0 0,0
20.02.2017 16:00:00 6,4 4,7 0,0
20.02.2017 15:00:00 7,0 6,5 0,8
20.02.2017 14:00:00 7,9 7,0 0,4
20.02.2017 13:00:00 8,2 7,5 0,2
20.02.2017 12:00:00 7,5 7,3 0,2
20.02.2017 11:00:00 6,9 6,9 1,2
20.02.2017 10:00:00 7,5 7,5 0,4
20.02.2017 09:00:00 8,6 8,6 0,8
20.02.2017 08:00:00 9,2 9,2 1,0
20.02.2017 07:00:00 9,9 9,9 3,0
20.02.2017 06:00:00 10,0 10,0 7,2
20.02.2017 05:00:00 10,4 10,1 2,6
20.02.2017 04:00:00 10,7 10,0 0,2
20.02.2017 03:00:00 9,4 8,9 0,0
20.02.2017 02:00:00 8,4 8,3 0,2
20.02.2017 01:00:00 8,2 8,2 0,0
20.02.2017 00:00:00 8,6 8,6 0,4
19.02.2017 23:00:00 9,2 9,1 1,0
19.02.2017 22:00:00 9,6 9,6 0,2
19.02.2017 21:00:00 9,4 9,3 1,0
19.02.2017 20:00:00 9,7 9,5 0,4
19.02.2017 19:00:00 10,1 9,6 1,2
19.02.2017 18:00:00 10,1 9,4 0,4
19.02.2017 17:00:00 9,8 8,8 0,2
19.02.2017 16:00:00 9,9 8,2 0,0
19.02.2017 15:00:00 10,0 7,6 0,0
19.02.2017 14:00:00 9,8 7,5 0,0
19.02.2017 13:00:00 9,9 7,8 0,0
19.02.2017 12:00:00 9,3 7,4 0,0
19.02.2017 11:00:00 8,4 7,1 0,0
19.02.2017 10:00:00 7,7 7,0 0,0
19.02.2017 09:00:00 6,8 6,1 0,2
19.02.2017 08:00:00 6,7 6,1 0,0
19.02.2017 07:00:00 6,7 6,1 0,2
19.02.2017 06:00:00 6,4 6,1 0,4
19.02.2017 05:00:00 6,7 6,0 0,0
19.02.2017 04:00:00 6,4 6,1 0,2
19.02.2017 03:00:00 6,5 6,1 0,6
19.02.2017 02:00:00 6,7 6,2 0,2
19.02.2017 01:00:00 6,6 6,0 0,2
19.02.2017 00:00:00 6,7 6,1 0,4
18.02.2017 23:00:00 6,9 6,1 0,4
18.02.2017 22:00:00 7,0 6,1 1,8
18.02.2017 21:00:00 7,5 6,6 1,8
18.02.2017 20:00:00 7,1 6,4 1,2
18.02.2017 19:00:00 7,1 6,2 2,8
18.02.2017 18:00:00 7,5 6,6 2,8
18.02.2017 17:00:00 7,8 6,5 0,8
18.02.2017 16:00:00 8,4 7,2 0,8
18.02.2017 15:00:00 8,8 7,0 0,0
18.02.2017 14:00:00 9,1 6,9 0,8
18.02.2017 13:00:00 9,0 7,0 0,0
18.02.2017 12:00:00 9,3 7,2 0,2
18.02.2017 11:00:00 8,4 7,4 0,6
18.02.2017 10:00:00 9,2 8,0 0,4
18.02.2017 09:00:00 9,2 8,3 0,4
18.02.2017 08:00:00 9,6 8,4 0,8
18.02.2017 07:00:00 8,7 7,7 0,8
18.02.2017 06:00:00 9,3 7,7 0,0
18.02.2017 05:00:00 8,5 7,2 0,0
18.02.2017 04:00:00 8,1 6,8 0,0
18.02.2017 03:00:00 8,3 6,5 0,0
18.02.2017 02:00:00 8,7 6,8 0,0
18.02.2017 01:00:00 7,5 5,7 0,0
18.02.2017 00:00:00 7,1 5,3 0,0
17.02.2017 23:00:00 7,1 5,2 0,0
17.02.2017 22:00:00 7,2 5,4 0,0
17.02.2017 21:00:00 7,6 5,6 0,0
17.02.2017 20:00:00 7,2 5,4 0,0
17.02.2017 19:00:00 7,1 5,2 0,0
17.02.2017 18:00:00 7,4 5,3 0,0
17.02.2017 17:00:00 8,1 5,9 0,0
17.02.2017 16:00:00 8,2 5,5 0,0
17.02.2017 15:00:00 8,2 5,7 0,0
17.02.2017 14:00:00 8,0 5,3 0,0
17.02.2017 13:00:00 7,6 5,6 0,0
17.02.2017 12:00:00 6,4 5,7 0,0
17.02.2017 11:00:00 4,4 4,3 0,0
17.02.2017 10:00:00 3,1 2,8 0,0
17.02.2017 09:00:00 1,0 0,7 0,0
17.02.2017 08:00:00 0,6 0,4 0,2
17.02.2017 07:00:00 1,4 1,2 0,0
17.02.2017 06:00:00 1,0 0,9 0,0
17.02.2017 05:00:00 0,8 0,8 0,0
17.02.2017 04:00:00 2,3 2,3 0,0
17.02.2017 03:00:00 3,0 3,0 0,0
17.02.2017 02:00:00 3,5 3,5 0,0
17.02.2017 01:00:00 3,4 3,3 0,0
17.02.2017 00:00:00 3,2 3,0 0,0
16.02.2017 23:00:00 3,9 3,6 0,0
16.02.2017 22:00:00 3,3 2,6 0,0
16.02.2017 21:00:00 6,5 6,2 0,0
16.02.2017 20:00:00 6,8 6,4 0,0
16.02.2017 19:00:00 7,1 6,5 0,0
16.02.2017 18:00:00 7,4 6,6 0,0
16.02.2017 17:00:00 7,5 7,1 0,0
16.02.2017 16:00:00 7,7 7,3 0,0
16.02.2017 15:00:00 7,9 7,5 0,0
16.02.2017 14:00:00 7,6 7,1 0,0
16.02.2017 13:00:00 7,1 6,6 0,6
16.02.2017 12:00:00 7,2 6,4 0,2
16.02.2017 11:00:00 7,2 6,4 0,4
16.02.2017 10:00:00 7,4 6,6 0,6
16.02.2017 09:00:00 7,7 6,8 1,2
16.02.2017 08:00:00 7,5 6,4 2,2
16.02.2017 07:00:00 7,7 6,3 1,0
16.02.2017 06:00:00 8,0 6,3 1,0
16.02.2017 05:00:00 7,8 6,1 0,4
16.02.2017 04:00:00 7,8 5,6 0,0
16.02.2017 03:00:00 7,5 4,7 0,0
16.02.2017 02:00:00 7,4 5,2 0,0
16.02.2017 01:00:00 6,1 5,0 0,2
16.02.2017 00:00:00 6,5 4,8 0,4
15.02.2017 23:00:00 6,0 4,2 0,4
15.02.2017 22:00:00 6,4 3,7 0,0
15.02.2017 21:00:00 6,5 3,6 0,0
15.02.2017 20:00:00 6,4 3,9 0,0
15.02.2017 19:00:00 6,2 3,6 0,0
15.02.2017 18:00:00 6,4 4,1 0,0
15.02.2017 17:00:00 7,5 4,7 0,0
15.02.2017 16:00:00 8,2 4,3 0,0
15.02.2017 15:00:00 8,1 4,2 0,0
15.02.2017 14:00:00 9,4 3,8 0,0

tt = temperature
td = dewpoint
rr = precipitation

Next stations